Main page
Satellite images Climate Cyclones Lightning AirportsFAQ Languages Contact Newsletter About
Weather : Europe Africa North America South America Asia Australia-Oceania Others

hue-vn, Da Nang, Da Nang International Airport

latitude: , longitude: Vietnam, elevation: 16-02N m


METAR: VVDN 181130Z 00000KT 8000 SCT012 FEW015CB BKN060 27/26 Q1000 TEMPO 4000 SHRA